Weather in Olekma

Russia / Amur Oblast     57°01′26″N   120°43′51″E
temp.,
°C
wind,
m/s
gust,
m/s
humid.,
%
clouds,
%
prec.,
mm/h
press.,
hPa
HPBL,
m
18 april, sun
sun1800:00−3n3293100 0.0 100340
03:00−3n3497100 0.3 100694
06:00−4nnw2397100 1.8 100786
09:00−2ne2395100 4.3 1008378
12:00−3n4587100 3.3 1010688
15:00−5n3585100 6.1 1013705
18:00−7nw4970100 0.6 10171446
21:00−10nw2381100 0.6 102053
19 april, mon
mon1900:00−11nw41171100 0.0 1021707
03:00−15wnw338259 0.0 102435
06:00−18wnw22908 0.0 102717
09:00−9wnw3857100 0.0 10241364
12:00−7nw464774 0.0 10231742
15:00−6nnw364584 0.0 10221819
18:00−6nw24455 0.0 10221492
21:00−14nw22813 0.0 102512
20 april, tue
tue2000:00−17wnw21853 0.0 102610
03:00−20w11883 0.0 10259
06:00−18wsw1184100 0.0 102247
09:00−14ese1077100 0.1 1018240
12:00−9se1063100 0.0 1015386
15:00−5sse1167100 0.0 1013440
18:00−4ssw0071100 0.0 1014357
21:00−7nnw1190100 0.0 101611
21 april, wed
wed2100:00−8nnw1192100 0.0 101610
03:00−7n1196100 0.4 101536
06:00−7nnw1197100 3.0 101429
09:00−3wnw1291100 4.3 1015378
12:00−1n2368100 0.3 10161025
15:000nne2365100 0.4 10171074
18:00−1ene1263100 0.1 1020970
21:00−5n228299 0.1 102318
22 april, thu
thu2200:00−7n2286100 0.0 102625
03:00−6n1188100 0.0 102713
06:00−7sw1190100 0.1 102813
09:00−4sse107199 0.1 1029401
12:00−2e025685 0.0 10291054
15:000ese0252100 0.1 10301257
18:00−1ese0169100 0.2 1032705
21:00−4wnw119195 0.6 103520